Regional Weather Roundup
Issued by NWS

Home | Current Version | Previous Version | Text Only | Print | Product List | Glossary Off
Versions: 1 2 3 4 5 6 7 8 9 10 11 12 13 14 15 16 17 18 19 20 21 22 23 24 25 26 27 28 29 30 31 32 33 34 35 36 37 38 39 40 41 42 43 44 45 46 47 48 49 50

000
ASUS43 KBIS 232010
RWRND

NORTH DAKOTA REGIONAL WEATHER ROUNDUP
NATIONAL WEATHER SERVICE BISMARCK ND
300 PM CDT WED AUG 23 2017

NOTE: "FAIR" INDICATES FEW OR NO CLOUDS BELOW 12,000 FEET WITH NO
SIGNIFICANT WEATHER AND/OR OBSTRUCTIONS TO VISIBILITY.


NDZ001>003-009>011-017-232100-
NORTHWEST NORTH DAKOTA

CITY           SKY/WX    TMP DP  RH WIND       PRES   REMARKS
WILLISTON      SUNNY     89  46  22 VRB5      29.95F
MINOT          SUNNY     87  47  24 S8        29.94F
MINOT AFB      SUNNY     87  45  22 SW7G21    29.92F
$$

NDZ018>021-031>035-040>046-232100-
SOUTHWEST NORTH DAKOTA

CITY           SKY/WX    TMP DP  RH WIND       PRES   REMARKS
BISMARCK       SUNNY     83  53  35 S7        29.99F
DICKINSON      SUNNY     85  47  26 VRB3      29.98F
GARRISON         N/A     82  53  36 S9        29.97F
HETTINGER ARPT SUNNY     83  52  34 E7        30.01F
$$

NDZ004>008-012>016-024-026-027-054-232100-
NORTHEAST NORTH DAKOTA

CITY           SKY/WX    TMP DP  RH WIND       PRES   REMARKS
GRAND FORKS    CLOUDY    75  50  41 SE9       30.03F
GRND FRKS AFB  CLOUDY    75  51  42 SE9       30.03F
DEVILS LAKE    MOSUNNY   77  50  38 S10       30.00F
$$

NDZ022-023-025-028>030-036>039-047>053-232100-
SOUTHEAST NORTH DAKOTA

CITY           SKY/WX    TMP DP  RH WIND       PRES   REMARKS
FARGO          SUNNY     77  49  37 E5        30.03F
JAMESTOWN      SUNNY     79  51  37 S10       30.00F
$$





USA.gov is the U.S. government's official web portal to all federal, state and local government web resources and services.